Weather History for Breckenridge, TX

Change the Weather History Date:

Monday, July 8, 2013

  Actual Average (KABI) Record (KABI)
Temperature  
Mean Temperature 88 °F 83 °F  
Max Temperature 99 °F 94 °F 105 °F (1978)
Min Temperature 77 °F 72 °F 57 °F (1952)
Degree Days  
Heating Degree Days 0 0  
Month to date heating degree days 0  
Since 1 June heating degree days 1  
Since 1 July heating degree days 0  
Cooling Degree Days 23 18  
Month to date cooling degree days 137  
Year to date cooling degree days 969  
Since 1 June cooling degree days 572  
Growing Degree Days 38 (Base 50)    
Moisture  
Dew Point 64 °F    
Average Humidity 47    
Maximum Humidity 75    
Minimum Humidity 25    
Precipitation  
Precipitation 0.00 in 0.06 in 1.65 in (1905)
Month to date precipitation 0.54  
Year to date precipitation 13.04  
Sea Level Pressure  
Sea Level Pressure 30.03 in    
Wind  
Wind Speed 8 mph (SSE)    
Max Wind Speed 18 mph    
Max Gust Speed 24 mph    
Visibility 10 miles    
Events      
T = Trace of Precipitation, MM = Missing Value Source: NWS Daily Summary

Daily Weather History Graph

Daily Weather History Graph

Search for Another Location

Airport:

Trip Planner

Search our weather history database for the weather conditions in past years. The results will help you decide how hot, cold, wet, or windy it might be!

Date:

Astronomy

Jul. 08, 2013 Rise Set
Actual Time 6:34 AM CDT 8:46 PM CDT
Civil Twilight 6:06 AM CDT 9:14 PM CDT
Nautical Twilight 5:31 AM CDT 9:49 PM CDT
Astronomical Twilight 4:54 AM CDT 10:26 PM CDT
Moon 7:00 AM CDT (7/8) 8:56 PM CDT (7/8)
Length of Visible Light 15h 08m
Length of Day
14h 11m
New Moon, 0% of the Moon is Illuminated
Jul 8
New Moon
Jul 15
First Quarter
Jul 22
Full
Jul 29
Last Quarter
Aug 6
New

Hourly Weather History & Observations

Time (CDT) Temp. Heat Index Dew Point Humidity Pressure Visibility Wind Dir Wind Speed Gust Speed Precip Events Conditions
12:15 AM 82.9 °F 82.8 °F 59.0 °F 44% 29.97 in 10.0 mi SE 6.9 mph - N/A   Clear
12:35 AM 82.2 °F 82.3 °F 59.2 °F 45% 29.98 in 10.0 mi SSE 9.2 mph - N/A   Clear
12:55 AM 83.1 °F 83.2 °F 59.7 °F 45% 29.98 in 10.0 mi SSE 9.2 mph - N/A   Clear
1:15 AM 83.8 °F 84.0 °F 60.3 °F 45% 29.98 in 10.0 mi SSE 9.2 mph - N/A   Clear
1:35 AM 83.5 °F 83.9 °F 61.5 °F 47% 29.98 in 10.0 mi SSE 9.2 mph - N/A   Clear
1:55 AM 83.3 °F 84.3 °F 62.8 °F 50% 29.99 in 10.0 mi South 8.1 mph - N/A   Clear
2:15 AM 82.4 °F 83.7 °F 63.5 °F 53% 29.99 in 10.0 mi SSE 8.1 mph - N/A   Clear
2:35 AM 81.7 °F 83.2 °F 64.2 °F 55% 29.99 in 10.0 mi SSE 6.9 mph - N/A   Clear
2:55 AM 81.0 °F 82.7 °F 64.8 °F 58% 29.99 in 10.0 mi SSE 6.9 mph - N/A   Clear
3:15 AM 80.6 °F 82.5 °F 65.5 °F 60% 29.99 in 10.0 mi South 4.6 mph - N/A   Clear
3:35 AM 80.1 °F 82.1 °F 66.2 °F 62% 29.99 in 10.0 mi South 3.5 mph - N/A   Clear
3:55 AM 79.7 °F - 66.6 °F 64% 30.00 in 10.0 mi SSE 4.6 mph - N/A   Clear
4:15 AM 79.5 °F - 66.9 °F 65% 30.01 in 10.0 mi SSE 4.6 mph - N/A   Clear
4:35 AM 79.0 °F - 67.1 °F 67% 30.01 in 10.0 mi South 4.6 mph - N/A   Clear
4:55 AM 78.8 °F - 67.3 °F 68% 30.02 in 10.0 mi SSE 5.8 mph - N/A   Clear
5:15 AM 78.6 °F - 67.6 °F 69% 30.02 in 10.0 mi SSE 4.6 mph - N/A   Clear
5:55 AM 77.5 °F - 67.6 °F 71% 30.03 in 10.0 mi SSE 8.1 mph - N/A   Clear
6:15 AM 77.2 °F - 68.0 °F 73% 30.03 in 10.0 mi SSE 6.9 mph - N/A   Clear
6:35 AM 77.2 °F - 68.0 °F 73% 30.05 in 10.0 mi SSE 5.8 mph - N/A   Clear
6:55 AM 77.0 °F - 68.4 °F 75% 30.05 in 10.0 mi SSE 6.9 mph - N/A   Clear
7:15 AM 77.7 °F - 68.5 °F 73% 30.05 in 10.0 mi SSE 5.8 mph - N/A   Clear
7:35 AM 78.8 °F - 68.9 °F 72% 30.06 in 10.0 mi SSE 6.9 mph - N/A   Clear
7:55 AM 79.9 °F - 68.9 °F 69% 30.07 in 10.0 mi South 9.2 mph - N/A   Clear
8:15 AM 80.6 °F 83.5 °F 68.9 °F 67% 30.07 in 10.0 mi SSE 9.2 mph 16.1 mph N/A   Clear
8:35 AM 81.1 °F 84.2 °F 68.9 °F 66% 30.08 in 10.0 mi SSE 11.5 mph 16.1 mph N/A   Clear
8:55 AM 82.8 °F 86.2 °F 68.9 °F 63% 30.08 in 10.0 mi South 11.5 mph 17.3 mph N/A   Clear
9:15 AM 83.7 °F 87.2 °F 68.9 °F 61% 30.09 in 10.0 mi South 10.4 mph - N/A   Clear
9:35 AM 84.6 °F 88.5 °F 69.1 °F 60% 30.09 in 10.0 mi South 8.1 mph - N/A   Clear
9:55 AM 86.0 °F 89.7 °F 68.9 °F 56% 30.08 in 10.0 mi South 6.9 mph - N/A   Clear
10:15 AM 86.9 °F 91.0 °F 68.9 °F 55% 30.08 in 10.0 mi South 6.9 mph - N/A   Clear
10:35 AM 87.8 °F 91.4 °F 68.2 °F 52% 30.08 in 10.0 mi SSW 5.8 mph - N/A   Clear
10:55 AM 88.7 °F 92.2 °F 67.8 °F 50% 30.08 in 10.0 mi WSW 3.5 mph 9.2 mph N/A   Clear
11:15 AM 90.3 °F 93.4 °F 66.9 °F 46% 30.08 in 10.0 mi South 10.4 mph - N/A   Clear
11:35 AM 90.5 °F 93.3 °F 66.7 °F 45% 30.08 in 7.0 mi South 5.8 mph - N/A   Clear
11:55 AM 91.6 °F 94.8 °F 66.7 °F 44% 30.07 in 10.0 mi WSW 5.8 mph - N/A   Mostly Cloudy
12:15 PM 90.9 °F 93.1 °F 65.8 °F 43% 30.07 in 10.0 mi South 9.2 mph - N/A   Mostly Cloudy
12:35 PM 92.3 °F 94.3 °F 64.9 °F 40% 30.07 in 10.0 mi South 10.4 mph - N/A   Scattered Clouds
12:55 PM 93.4 °F 95.2 °F 64.4 °F 38% 30.06 in 10.0 mi South 9.2 mph 16.1 mph N/A   Scattered Clouds
1:15 PM 94.6 °F 96.4 °F 63.9 °F 36% 30.06 in 10.0 mi South 10.4 mph - N/A   Clear
1:35 PM 94.6 °F 96.4 °F 63.5 °F 36% 30.05 in 10.0 mi South 11.5 mph - N/A   Clear
1:55 PM 95.5 °F 96.9 °F 62.8 °F 34% 30.05 in 10.0 mi WSW 3.5 mph - N/A   Scattered Clouds
2:15 PM 95.5 °F 96.0 °F 61.5 °F 32% 30.04 in 10.0 mi SSE 6.9 mph - N/A   Scattered Clouds
2:35 PM 95.7 °F 96.3 °F 61.5 °F 32% 30.03 in 10.0 mi SE 9.2 mph - N/A   Scattered Clouds
2:55 PM 97.0 °F 97.8 °F 61.5 °F 31% 30.03 in 10.0 mi SW 3.5 mph 17.3 mph N/A   Mostly Cloudy
3:15 PM 97.3 °F 97.5 °F 59.7 °F 29% 30.02 in 10.0 mi South 8.1 mph 16.1 mph N/A   Mostly Cloudy
3:35 PM 97.7 °F 98.0 °F 60.6 °F 29% 30.02 in 10.0 mi South 9.2 mph 17.3 mph N/A   Scattered Clouds
3:55 PM 98.2 °F 98.9 °F 60.6 °F 29% 30.01 in 10.0 mi South 11.5 mph 18.4 mph N/A   Clear
4:15 PM 99.1 °F 99.3 °F 60.1 °F 27% 30.00 in 10.0 mi SE 8.1 mph 16.1 mph N/A   Clear
4:35 PM 98.6 °F 98.9 °F 59.9 °F 28% 30.00 in 10.0 mi SE 10.4 mph - N/A   Clear
4:55 PM 98.6 °F 98.0 °F 58.5 °F 26% 29.99 in 10.0 mi SSE 3.5 mph - N/A   Scattered Clouds
5:15 PM 98.1 °F 97.7 °F 58.8 °F 27% 29.98 in 10.0 mi SSE 9.2 mph - N/A   Scattered Clouds
5:35 PM 99.0 °F 98.6 °F 58.3 °F 26% 29.98 in 10.0 mi ESE 9.2 mph - N/A   Clear
5:55 PM 99.0 °F 98.1 °F 57.9 °F 25% 29.97 in 10.0 mi SE 5.8 mph 16.1 mph N/A   Clear
6:15 PM 98.2 °F 97.5 °F 58.3 °F 26% 29.97 in 10.0 mi SE 10.4 mph 16.1 mph N/A   Scattered Clouds
6:35 PM 98.2 °F 97.5 °F 58.3 °F 26% 29.96 in 10.0 mi SSE 11.5 mph 20.7 mph N/A   Scattered Clouds
6:55 PM 97.7 °F 97.6 °F 59.2 °F 28% 29.96 in 10.0 mi SE 15.0 mph 21.9 mph N/A   Clear
7:15 PM 97.0 °F 96.9 °F 59.7 °F 29% 29.97 in 10.0 mi SSE 18.4 mph - N/A   Clear
7:35 PM 94.5 °F 95.2 °F 62.1 °F 34% 29.97 in 10.0 mi South 12.7 mph 24.2 mph N/A   Clear
7:55 PM 94.1 °F 94.6 °F 61.9 °F 34% 29.98 in 10.0 mi SSE 11.5 mph 18.4 mph N/A   Clear
8:15 PM 92.7 °F 93.2 °F 62.4 °F 36% 29.98 in 10.0 mi SSE 15.0 mph 19.6 mph N/A   Clear
8:35 PM 90.7 °F 92.4 °F 64.9 °F 42% 29.99 in 10.0 mi South 12.7 mph 20.7 mph N/A   Clear
8:55 PM 89.8 °F 91.8 °F 64.9 °F 44% 30.00 in 10.0 mi South 10.4 mph 19.6 mph N/A   Clear
9:15 PM 89.1 °F 90.6 °F 64.4 °F 44% 30.01 in 10.0 mi South 15.0 mph - N/A   Clear
9:35 PM 88.2 °F 89.6 °F 64.4 °F 45% 30.02 in 10.0 mi South 12.7 mph 20.7 mph N/A   Clear
9:55 PM 87.4 °F 88.5 °F 63.9 °F 45% 30.03 in 10.0 mi South 11.5 mph - N/A   Clear
10:15 PM 86.9 °F 87.8 °F 63.5 °F 45% 30.05 in 10.0 mi South 9.2 mph - N/A   Clear
10:35 PM 86.4 °F 87.6 °F 63.7 °F 47% 30.06 in 10.0 mi South 8.1 mph - N/A   Clear
10:55 PM 85.6 °F 86.6 °F 63.5 °F 47% 30.06 in 10.0 mi South 8.1 mph - N/A   Clear
11:15 PM 85.3 °F 86.1 °F 63.1 °F 47% 30.07 in 10.0 mi South 10.4 mph 17.3 mph N/A   Clear
11:35 PM 84.7 °F 85.6 °F 63.1 °F 48% 30.08 in 10.0 mi South 9.2 mph - N/A   Clear
11:55 PM 83.8 °F 85.1 °F 63.7 °F 51% 30.08 in 10.0 mi South 11.5 mph 17.3 mph N/A   Clear